DO6MJ-1 Weather Reports


time (UTC)temp
C
wind
direction
speed
KPH
gust
KPH
rain 1hr
cm
rain 24hr
cm
rain mn
cm
humidity
%
barometer
mb
20260506164331 9 45 0.0 16.1 0.15 1.63 1.63 95 999.7
20260506162331 9 31 0.0 16.1 0.10 1.52 1.52 95 999.8
20260506160330 9 22 0.0 16.1 0.10 1.47 1.47 95 999.8
20260506154330 9 45 0.0 16.1 0.10 1.47 1.47 94 999.8
20260506152330 9 22 0.0 16.1 0.05 1.42 1.42 94 999.8
20260506150329 9 22 0.0 16.1 0.00 1.37 1.37 94 999.8
20260506144329 9 39 1.6 16.1 0.00 1.37 1.37 94 999.9
20260506142329 9 51 1.6 16.1 0.05 1.37 1.37 94 999.9
20260506140329 9 48 1.6 16.1 0.05 1.37 1.37 94 999.9
20260506134328 9 55 1.6 16.1 0.05 1.37 1.37 94 999.9
20260506132328 9 53 0.0 16.1 0.00 1.32 1.32 94 1000.0
20260506130328 9 44 0.0 16.1 0.00 1.32 1.32 94 1000.0
20260506124327 9 58 0.0 16.1 0.00 1.32 1.32 94 1000.0
20260506122327 9 56 0.0 16.1 0.00 1.32 1.32 94 999.9
20260506120327 9 62 0.0 16.1 0.00 1.32 1.32 94 999.7
20260506114327 9 45 1.6 12.9 0.00 1.32 1.32 94 999.9
20260506112326 9 46 1.6 12.9 0.00 1.32 1.32 94 999.8
20260506110327 9 45 1.6 12.9 0.05 1.32 1.32 94 999.7
20260506104326 8 45 0.0 12.9 0.05 1.37 1.32 94 999.7
20260506102325 8 47 1.6 12.9 0.10 1.37 1.32 94 999.6
20260506100325 8 59 1.6 12.9 0.10 1.32 1.27 94 999.6
20260506094325 8 45 0.0 12.9 0.15 1.32 1.27 95 999.4
20260506092325 8 45 0.0 12.9 0.15 1.27 1.22 95 999.4
20260506090326 7 45 0.0 12.9 0.15 1.22 1.17 95 999.5
20260506084324 7 47 0.0 12.9 0.15 1.17 1.12 95 999.2
20260506082324 7 25 0.0 12.9 0.15 1.17 1.07 94 999.2
20260506080324 7 45 0.0 12.9 0.15 1.22 1.02 94 999.3
20260506072323 7 45 0.0 12.9 0.15 1.17 0.91 94 998.9
20260506070323 7 33 0.0 12.9 0.20 1.12 0.86 94 999.1
20260506062322 7 67 0.0 12.9 0.20 1.07 0.76 94 998.8
20260506060323 7 22 0.0 12.9 0.20 0.97 0.66 94 998.8
20260506050321 7 22 0.0 12.9 0.20 0.81 0.46 94 998.9
20260506044321 7 45 0.0 12.9 0.20 0.76 0.41 94 998.8
20260506042320 8 39 0.0 12.9 0.20 0.71 0.36 93 998.9
20260506040320 8 22 0.0 12.9 0.15 0.61 0.25 93 998.9
20260506034320 8 45 0.0 12.9 0.15 0.56 0.20 93 999.0
20260506032320 8 54 0.0 12.9 0.15 0.56 0.15 93 999.1
20260506030319 8 55 0.0 12.9 0.10 0.51 0.10 92 999.1
20260506024319 8 44 0.0 12.9 0.05 0.46 0.05 92 999.1
20260506022319 8 55 0.0 12.9 0.00 0.41 0.00 91 999.4
20260506020318 9 51 0.0 12.9 0.00 0.41 0.00 90 999.5
20260506014318 9 68 1.6 12.9 0.00 0.46 0.00 89 999.5
20260506012319 10 44 4.8 12.9 0.00 0.46 0.00 89 999.6
20260506010318 10 49 0.0 12.9 0.00 0.46 0.00 89 999.7
20260506004317 10 53 1.6 9.7 0.00 0.46 0.00 90 999.8
20260506002317 10 52 0.0 9.7 0.00 0.46 0.00 90 1000.0
20260506000317 10 45 0.0 9.7 0.00 0.51 0.00 90 1000.4
20260505234316 10 45 0.0 9.7 0.00 0.51 0.00 90 1000.6
20260505232316 10 47 0.0 9.7 0.00 0.51 0.00 90 1000.6
20260505230316 10 45 0.0 9.7 0.00 0.51 0.00 90 1000.6
20260505224316 10 65 0.0 9.7 0.00 0.51 0.00 91 1000.8
20260505222315 10 43 1.6 9.7 0.00 0.51 0.00 91 1000.9
20260505220315 10 45 0.0 0.0 0.00 0.51 0.00 91 1000.9
20260505214315 10 48 0.0 12.9 0.00 0.51 0.51 91 1000.9
20260505212315 11 5 0.0 12.9 0.00 0.56 0.51 91 1001.1
20260505210314 11 50 0.0 12.9 0.00 0.56 0.51 91 1001.5
20260505204314 11 49 4.8 12.9 0.00 0.56 0.51 90 1001.2
20260505202314 11 49 3.2 12.9 0.00 0.56 0.51 90 1001.3
20260505200313 11 73 0.0 12.9 0.00 0.56 0.51 90 1001.3
20260505194313 11 66 0.0 12.9 0.00 0.61 0.51 89 1001.3
20260505192313 11 46 3.2 11.3 0.00 0.61 0.51 89 1001.3
20260505190312 11 45 0.0 11.3 0.00 0.61 0.51 89 1001.3
20260505184312 11 45 3.2 11.3 0.00 0.61 0.51 89 1001.1
20260505182312 12 51 3.2 11.3 0.00 0.61 0.51 89 1001.1
20260505180312 12 47 0.0 11.3 0.00 0.61 0.51 89 1001.2
20260505174311 12 36 0.0 11.3 0.00 0.61 0.51 89 1001.3
20260505172312 12 97 0.0 11.3 0.00 0.61 0.51 88 1001.5
20260505170311 12 30 0.0 11.3 0.00 0.61 0.51 88 1001.5